Tracking 31027 objects as of 19-Jul-2025
HD Live streaming from Space Station
objects crossing your sky now

INTELSAT 4-F4

Track INTELSAT 4-F4 now!
INTELSAT 4-F4 is classified as:


NORAD ID: 5775
Int'l Code: 1972-003A
Perigee: 35,903.6 km
Apogee: 35,928.9 km
Inclination: 7.5 °
Period: 1,442.4 minutes
Semi major axis: 42287 km
RCS: 2 m2 (large)
Launch date: January 23, 1972
Source: International Telecommunications Satellite Organization (ITSO)
Launch site: AIR FORCE EASTERN TEST RANGE (AFETR)
Your satellite tracking list
NUSAT-20 (GRACE)
Track 1 satellite(s)




NASA's NSSDC Master Catalog

Two Line Element Set (TLE):
1 05775U 72003A   25199.28821073 -.00000250  00000-0  00000-0 0  9991
2 05775   7.5296 297.1970 0002995 159.6702 271.0976  0.99836297134064
Source of the keplerian elements: AFSPC